DLH9HH EDDM-EDDL

Flight info

Callsign DLH9HH
Flight time N/A
Altitude 32000
Route GIVMI6S GIVMI Y101 INBED DCT REKDI DCT LOHRE Z850 ADEMI T854 DOMUX DOMUX1A
Aircraft A320/M-SDE2E3FGIJ1LORWXYZ/HB1

Departure

Time 2026-05-05 14:35
Airport Munich Airport (EDDM)

Arrival

Time N/A
Airport Düsseldorf Airport (EDDL)
Time Latitude Longitude Altitude Speed Heading
2026-05-05 14:15 48.35582 11.79714 1485 ft 0 kts 83°
2026-05-05 14:22 48.35581 11.79710 1485 ft 2 kts 83°
2026-05-05 14:22 48.35580 11.79686 1475 ft 2 kts 83°
2026-05-05 14:23 48.35578 11.79663 1477 ft 2 kts 83°
2026-05-05 14:23 48.35575 11.79638 1477 ft 2 kts 75°
2026-05-05 14:23 48.35571 11.79615 1471 ft 1 kts 59°
2026-05-05 14:23 48.35562 11.79599 1473 ft 2 kts 45°
2026-05-05 14:24 48.35549 11.79583 1475 ft 2 kts 13°
2026-05-05 14:24 48.35538 11.79580 1485 ft 0 kts 357°
2026-05-05 14:26 48.35539 11.79580 1485 ft 1 kts 356°
2026-05-05 14:27 48.35559 11.79575 1482 ft 7 kts 349°
2026-05-05 14:27 48.35614 11.79561 1483 ft 6 kts 353°
2026-05-05 14:27 48.35665 11.79553 1485 ft 9 kts 354°
2026-05-05 14:27 48.35715 11.79545 1483 ft 7 kts 354°
2026-05-05 14:28 48.35789 11.79532 1485 ft 11 kts 353°
2026-05-05 14:28 48.35860 11.79519 1481 ft 11 kts 354°
2026-05-05 14:28 48.35965 11.79502 1476 ft 19 kts 354°
2026-05-05 14:28 48.36092 11.79479 1484 ft 18 kts 353°
2026-05-05 14:29 48.36191 11.79469 1481 ft 10 kts 14°
2026-05-05 14:29 48.36219 11.79546 1485 ft 12 kts 82°
2026-05-05 14:29 48.36234 11.79744 1483 ft 22 kts 84°
2026-05-05 14:29 48.36251 11.79958 1482 ft 19 kts 83°
2026-05-05 14:30 48.36266 11.80166 1476 ft 23 kts 83°
2026-05-05 14:30 48.36289 11.80447 1485 ft 28 kts 83°
2026-05-05 14:30 48.36311 11.80727 1480 ft 26 kts 83°
2026-05-05 14:30 48.36330 11.80982 1485 ft 24 kts 84°
2026-05-05 14:31 48.36347 11.81220 1483 ft 21 kts 83°
2026-05-05 14:31 48.36365 11.81434 1485 ft 23 kts 83°
2026-05-05 14:31 48.36386 11.81706 1485 ft 26 kts 83°
2026-05-05 14:31 48.36398 11.81905 1485 ft 10 kts 95°
2026-05-05 14:32 48.36407 11.81980 1485 ft 6 kts 51°
2026-05-05 14:32 48.36431 11.81999 1483 ft 3 kts 15°
2026-05-05 14:32 48.36469 11.81999 1476 ft 5 kts 355°
2026-05-05 14:32 48.36507 11.81993 1485 ft 8 kts 354°
2026-05-05 14:33 48.36601 11.81978 1482 ft 15 kts 352°
2026-05-05 14:33 48.36665 11.81887 1478 ft 11 kts 292°
2026-05-05 14:33 48.36667 11.81866 1478 ft 0 kts 268°
2026-05-05 14:34 48.36664 11.81800 1476 ft 29 kts 264°
2026-05-05 14:34 48.36612 11.81119 1486 ft 99 kts 263°
2026-05-05 14:34 48.36513 11.79808 1487 ft 151 kts 264°
2026-05-05 14:35 48.36413 11.78141 2014 ft 160 kts 266°
2026-05-05 14:35 48.36300 11.76465 2772 ft 168 kts 264°
2026-05-05 14:35 48.36160 11.74614 3322 ft 188 kts 264°
2026-05-05 14:35 48.35996 11.72549 3737 ft 210 kts 263°
2026-05-05 14:36 48.35814 11.70287 4265 ft 226 kts 263°
2026-05-05 14:36 48.35870 11.67910 5095 ft 232 kts 285°
2026-05-05 14:36 48.36606 11.65614 5631 ft 257 kts 300°
2026-05-05 14:36 48.37565 11.63250 6332 ft 271 kts 301°
2026-05-05 14:37 48.38581 11.60808 6915 ft 279 kts 301°
2026-05-05 14:37 48.39614 11.58323 7844 ft 282 kts 301°
2026-05-05 14:37 48.40656 11.55796 8767 ft 286 kts 300°
2026-05-05 14:37 48.41708 11.53220 9660 ft 291 kts 299°
2026-05-05 14:38 48.42777 11.50589 10486 ft 296 kts 299°
2026-05-05 14:38 48.43861 11.47923 11325 ft 301 kts 300°
2026-05-05 14:38 48.45165 11.45425 12153 ft 307 kts 314°
2026-05-05 14:38 48.46896 11.43478 12920 ft 318 kts 329°
2026-05-05 14:39 48.49031 11.42229 13203 ft 342 kts 347°
2026-05-05 14:39 48.51423 11.41600 13729 ft 354 kts 349°
2026-05-05 14:39 48.53877 11.40960 14370 ft 360 kts 349°
2026-05-05 14:39 48.56359 11.40293 15047 ft 364 kts 349°
2026-05-05 14:40 48.58863 11.39607 15724 ft 369 kts 348°
2026-05-05 14:40 48.61401 11.38900 16381 ft 374 kts 348°
2026-05-05 14:40 48.63975 11.38177 17041 ft 378 kts 348°
2026-05-05 14:40 48.66581 11.37448 17699 ft 383 kts 348°
2026-05-05 14:41 48.69185 11.36493 18320 ft 386 kts 339°
2026-05-05 14:41 48.71645 11.34854 18887 ft 387 kts 328°
2026-05-05 14:41 48.73920 11.32639 19467 ft 390 kts 323°
2026-05-05 14:41 48.76179 11.30340 20119 ft 394 kts 323°
2026-05-05 14:42 48.78465 11.28017 20749 ft 398 kts 324°
2026-05-05 14:42 48.80776 11.25674 21373 ft 402 kts 324°
2026-05-05 14:42 48.83120 11.23327 21985 ft 406 kts 327°
2026-05-05 14:42 48.85661 11.21380 22560 ft 412 kts 337°
2026-05-05 14:43 48.88388 11.19955 23150 ft 417 kts 340°
2026-05-05 14:43 48.91150 11.18566 23685 ft 420 kts 340°
2026-05-05 14:43 48.93940 11.17156 24153 ft 424 kts 340°
2026-05-05 14:43 48.96743 11.15730 24577 ft 426 kts 340°
2026-05-05 14:44 48.99569 11.14290 25011 ft 430 kts 340°
2026-05-05 14:44 49.02412 11.12837 25432 ft 432 kts 340°
2026-05-05 14:44 49.05276 11.11372 25848 ft 435 kts 340°
2026-05-05 14:44 49.08155 11.09900 26265 ft 438 kts 340°
2026-05-05 14:45 49.11055 11.08418 26678 ft 441 kts 340°
2026-05-05 14:45 49.13975 11.06929 27084 ft 444 kts 340°
2026-05-05 14:45 49.16919 11.05429 27494 ft 447 kts 340°
2026-05-05 14:45 49.19874 11.03917 27893 ft 450 kts 340°
2026-05-05 14:46 49.22852 11.02388 28288 ft 452 kts 339°
2026-05-05 14:46 49.25847 11.00847 28684 ft 455 kts 339°
2026-05-05 14:46 49.28852 10.99293 29066 ft 458 kts 339°
2026-05-05 14:46 49.31882 10.97723 29437 ft 461 kts 339°
2026-05-05 14:47 49.34889 10.96000 29800 ft 462 kts 333°
2026-05-05 14:47 49.37666 10.93673 30116 ft 461 kts 323°
2026-05-05 14:47 49.40243 10.90659 30439 ft 459 kts 314°
2026-05-05 14:47 49.42435 10.87197 30751 ft 456 kts 306°
2026-05-05 14:48 49.44444 10.83402 31063 ft 458 kts 305°
2026-05-05 14:48 49.46454 10.79598 31386 ft 459 kts 305°
2026-05-05 14:48 49.48466 10.75789 31712 ft 459 kts 305°
2026-05-05 14:48 49.50464 10.72005 31784 ft 451 kts 304°
2026-05-05 14:49 49.52403 10.68333 31797 ft 433 kts 304°
2026-05-05 14:49 49.54280 10.64762 31794 ft 425 kts 304°
2026-05-05 14:49 49.57957 10.57718 31798 ft 421 kts 304°
2026-05-05 14:50 49.61623 10.50677 31805 ft 421 kts 304°
2026-05-05 14:50 49.65282 10.43635 31806 ft 420 kts 303°
2026-05-05 14:51 49.68713 10.36376 31805 ft 418 kts 300°
2026-05-05 14:51 49.71927 10.28911 31806 ft 417 kts 298°
2026-05-05 14:52 49.75121 10.21436 31803 ft 417 kts 299°
2026-05-05 14:52 49.78360 10.14010 31800 ft 417 kts 300°
2026-05-05 14:53 49.81629 10.06591 31801 ft 417 kts 300°
2026-05-05 14:53 49.84891 9.99158 31802 ft 417 kts 300°
2026-05-05 14:54 49.88135 9.91707 31807 ft 417 kts 299°
2026-05-05 14:54 49.91364 9.84245 31815 ft 416 kts 299°
2026-05-05 14:55 49.93866 9.78464 31818 ft 416 kts 299°
2026-05-05 14:55 49.97094 9.70997 31821 ft 416 kts 299°
2026-05-05 14:56 50.00291 9.63593 31819 ft 416 kts 299°
2026-05-05 14:56 50.03508 9.56098 31824 ft 416 kts 299°
2026-05-05 14:57 50.06887 9.48793 31822 ft 420 kts 309°
2026-05-05 14:57 50.11332 9.42791 31815 ft 424 kts 317°
2026-05-05 14:58 50.15934 9.37007 31815 ft 425 kts 317°
2026-05-05 14:58 50.20526 9.31192 31813 ft 425 kts 317°
2026-05-05 14:59 50.25111 9.25353 31812 ft 426 kts 317°
2026-05-05 14:59 50.29704 9.19497 31813 ft 426 kts 317°
2026-05-05 15:00 50.33514 9.14627 31811 ft 426 kts 317°
2026-05-05 15:00 50.38106 9.08758 31819 ft 426 kts 317°
2026-05-05 15:01 50.42691 9.02881 31818 ft 426 kts 316°
2026-05-05 15:01 50.47309 8.96945 31820 ft 426 kts 316°
2026-05-05 15:02 50.51888 8.91041 31823 ft 426 kts 316°
2026-05-05 15:02 50.56499 8.85280 31828 ft 426 kts 318°
2026-05-05 15:03 50.61232 8.79670 31833 ft 426 kts 319°
2026-05-05 15:03 50.65975 8.74060 31831 ft 425 kts 318°
2026-05-05 15:04 50.70676 8.68415 31831 ft 424 kts 318°
2026-05-05 15:04 50.74301 8.64035 31830 ft 424 kts 318°
2026-05-05 15:05 50.78976 8.58361 31648 ft 422 kts 318°
2026-05-05 15:05 50.81288 8.55548 31414 ft 419 kts 318°
2026-05-05 15:05 50.83591 8.52748 31158 ft 416 kts 318°
2026-05-05 15:06 50.85882 8.49958 30904 ft 414 kts 319°
2026-05-05 15:06 50.88155 8.47183 30657 ft 413 kts 319°
2026-05-05 15:06 50.90427 8.44410 30353 ft 411 kts 319°
2026-05-05 15:06 50.92678 8.41660 29989 ft 408 kts 319°
2026-05-05 15:07 50.94920 8.38919 29580 ft 405 kts 319°
2026-05-05 15:07 50.97144 8.36192 29162 ft 403 kts 319°
2026-05-05 15:07 50.99352 8.33478 28734 ft 400 kts 319°
2026-05-05 15:07 51.01566 8.30823 28334 ft 399 kts 323°
2026-05-05 15:08 51.03961 8.28586 27919 ft 398 kts 328°
2026-05-05 15:08 51.06375 8.26448 27531 ft 396 kts 328°